Date String (YYYY-MM-DD hh:mm:ss) UTC,Instrument flags,Ambient pressure (hPa),Sample flow (lpm),Bypass flow (lpm),Sample temperature (°C),Ambient temperature (°C),ASC tube jacket temperature (°C),LED temperature (°C),Box temperature (°C),Sample RH (%),Span deviation,Mass concentration (μg/m³),Mass concentration (μg/m³),Mass concentration (μg/m³)
DateTimeUTC,F1_M11,P_M11,Q1_M11,Q2_M11,T1_M11,T2_M11,T3_M11,T4_M11,T5_M11,U1_M11,ZSPAN_M11,X0_M11,X2_M11,X1_M11
2021-12-21 20:00:00,,0822.2,4.98,0.00,24.7,24.1,00.0,33.8,26.6,05.0,0000.0,0003.66,0000.82,0000.28
2021-12-21 20:01:00,,0822.2,5.00,0.00,24.7,24.1,00.0,33.8,26.6,04.9,0000.0,0003.64,0000.78,0000.27
2021-12-21 20:02:00,,0822.0,5.01,0.00,24.7,24.1,00.0,33.8,26.6,04.9,0000.0,0006.58,0000.75,0000.27
2021-12-21 20:03:00,,0822.1,4.99,0.00,24.8,24.1,00.0,33.8,26.6,04.9,0000.0,0007.94,0000.81,0000.27
2021-12-21 20:04:00,,0822.1,5.00,0.00,24.8,24.1,00.0,33.8,26.6,04.8,0000.0,0007.97,0000.81,0000.27
2021-12-21 20:05:00,,0821.9,5.00,0.00,24.8,24.1,00.0,33.8,26.6,04.9,0000.0,0007.91,0000.76,0000.27
2021-12-21 20:06:00,,0822.0,4.98,0.00,24.8,24.1,00.0,33.8,26.6,05.0,0000.0,0007.90,0000.73,0000.26
2021-12-21 20:07:00,,0821.8,5.00,0.00,24.8,24.1,00.0,33.8,26.6,05.0,0000.0,0007.81,0000.71,0000.27
2021-12-21 20:08:00,,0822.0,4.99,0.00,24.8,24.1,00.0,33.8,26.6,04.9,0000.0,0007.83,0000.72,0000.26
2021-12-21 20:09:00,,0822.0,5.01,0.00,24.8,24.1,00.0,33.8,26.6,04.9,0000.0,0008.38,0000.70,0000.26
2021-12-21 20:10:00,,0821.8,4.99,0.00,24.8,24.1,00.0,33.8,26.6,05.0,0000.0,0008.63,0000.67,0000.26
2021-12-21 20:11:00,,0822.2,5.00,0.00,24.8,24.1,00.0,33.8,26.6,05.0,0000.0,0008.96,0000.73,0000.26
2021-12-21 20:12:00,,0822.2,4.99,0.00,24.8,24.1,00.0,33.8,26.6,04.9,0000.0,0008.98,0000.79,0000.27
2021-12-21 20:13:00,,0822.1,4.99,0.00,24.8,24.1,00.0,33.8,26.6,05.0,0000.0,0007.46,0000.74,0000.26
2021-12-21 20:14:00,,0822.2,5.00,0.00,24.8,24.1,00.0,33.8,26.6,05.0,0000.0,0006.37,0000.66,0000.26
2021-12-21 20:15:00,,0822.3,4.99,0.00,24.8,24.1,00.0,33.8,26.6,05.0,0000.0,0006.31,0000.65,0000.25
2021-12-21 20:16:00,,0822.3,5.01,0.00,24.8,24.1,00.0,33.8,26.6,05.0,0000.0,0006.37,0000.63,0000.25
2021-12-21 20:17:00,,0822.3,4.99,0.00,24.9,24.1,00.0,33.8,26.6,05.0,0000.0,0006.31,0000.62,0000.24
2021-12-21 20:18:00,,0822.1,5.00,0.00,24.9,24.1,00.0,33.9,26.7,05.1,0000.0,0006.30,0000.62,0000.24
2021-12-21 20:19:00,,0822.0,5.01,0.00,24.9,24.1,00.0,33.9,26.7,05.1,0000.0,0005.88,0000.56,0000.23
2021-12-21 20:20:00,,0822.1,5.00,0.00,24.9,24.2,00.0,33.9,26.7,05.0,0000.0,0004.63,0000.55,0000.23
2021-12-21 20:21:00,,0822.4,5.01,0.00,24.9,24.2,00.0,33.9,26.7,05.0,0000.0,0003.48,0000.52,0000.23
2021-12-21 20:22:00,,0822.4,4.99,0.00,24.9,24.2,00.0,33.9,26.7,05.1,0000.0,0002.60,0000.44,0000.22
2021-12-21 20:23:00,,0822.3,5.01,0.00,24.9,24.1,00.0,33.9,26.7,05.1,0000.0,0002.40,0000.37,0000.21
2021-12-21 20:24:00,,0822.3,5.00,0.00,24.9,24.1,00.0,33.9,26.7,05.1,0000.0,0000.96,0000.36,0000.21
2021-12-21 20:25:00,,0822.2,5.01,0.00,25.0,24.1,00.0,33.9,26.7,05.1,0000.0,0000.79,0000.38,0000.20
2021-12-21 20:26:00,,0822.1,5.00,0.00,25.0,24.1,00.0,33.9,26.7,05.1,0000.0,0000.84,0000.41,0000.20
2021-12-21 20:27:00,,0822.2,4.99,0.00,25.0,24.2,00.0,33.9,26.7,05.1,0000.0,0000.75,0000.42,0000.20
2021-12-21 20:28:00,,0822.1,5.01,0.00,25.0,24.2,00.0,33.9,26.7,05.1,0000.0,0000.73,0000.41,0000.20
2021-12-21 20:29:00,,0822.1,5.00,0.00,25.0,24.2,00.0,33.9,26.8,05.3,0000.0,0000.71,0000.40,0000.21
2021-12-21 20:30:00,,0822.1,5.00,0.00,25.0,24.2,00.0,34.0,26.8,05.3,0000.0,0000.75,0000.40,0000.22
2021-12-21 20:31:00,,0821.9,4.99,0.00,25.0,24.3,00.0,34.0,26.8,05.5,0000.0,0000.75,0000.39,0000.22
2021-12-21 20:32:00,,0821.7,5.01,0.00,25.0,24.3,00.0,34.0,26.8,05.4,0000.0,0000.86,0000.42,0000.22
2021-12-21 20:33:00,,0822.0,4.99,0.00,25.0,24.3,00.0,34.0,26.8,05.3,0000.0,0000.85,0000.40,0000.22
2021-12-21 20:34:00,,0822.1,5.01,0.00,25.0,24.3,00.0,34.0,26.8,05.4,0000.0,0000.85,0000.40,0000.22
2021-12-21 20:35:00,,0822.3,5.01,0.00,25.0,24.3,00.0,34.0,26.8,05.3,0000.0,0000.90,0000.44,0000.22
2021-12-21 20:36:00,,0822.2,5.00,0.00,25.0,24.3,00.0,34.0,26.8,05.3,0000.0,0000.94,0000.47,0000.23
2021-12-21 20:37:00,,0822.0,5.01,0.00,25.0,24.3,00.0,34.0,26.8,05.6,0000.0,0001.21,0000.52,0000.24
2021-12-21 20:38:00,,0822.3,5.02,0.00,25.1,24.4,00.0,34.0,26.9,05.6,0000.0,0002.13,0000.53,0000.25
2021-12-21 20:39:00,,0822.3,4.99,0.00,25.1,24.4,00.0,34.0,26.9,05.5,0000.0,0002.29,0000.57,0000.25
2021-12-21 20:40:00,,0822.4,5.01,0.00,25.1,24.4,00.0,34.1,26.9,05.5,0000.0,0002.33,0000.58,0000.25
2021-12-21 20:41:00,,0822.4,4.98,0.00,25.1,24.3,00.0,34.1,26.8,05.6,0000.0,0002.25,0000.56,0000.24
2021-12-21 20:42:00,,0822.6,5.01,0.00,25.1,24.3,00.0,34.1,26.9,05.5,0000.0,0002.30,0000.56,0000.23
2021-12-21 20:43:00,,0822.5,4.99,0.00,25.1,24.3,00.0,34.1,26.9,05.5,0000.0,0002.26,0000.54,0000.23
2021-12-21 20:44:00,,0822.4,5.01,0.00,25.1,24.4,00.0,34.1,26.9,05.6,0000.0,0002.23,0000.53,0000.24
2021-12-21 20:45:00,,0822.4,4.99,0.00,25.1,24.4,00.0,34.1,26.9,05.6,0000.0,0002.20,0000.53,0000.25
2021-12-21 20:46:00,,0822.4,5.00,0.00,25.2,24.4,00.0,34.1,26.9,05.5,0000.0,0002.14,0000.50,0000.26
2021-12-21 20:47:00,,0822.5,5.01,0.00,25.1,24.4,00.0,34.1,26.9,05.4,0000.0,0002.09,0000.46,0000.27
2021-12-21 20:48:00,,0822.4,4.99,0.00,25.2,24.4,00.0,34.1,26.9,05.4,0000.0,0001.76,0000.41,0000.27
2021-12-21 20:49:00,,0822.4,5.00,0.00,25.2,24.4,00.0,34.1,26.9,05.6,0000.0,0000.89,0000.42,0000.28
2021-12-21 20:50:00,,0822.5,5.00,0.00,25.2,24.4,00.0,34.1,27.0,05.5,0000.0,0000.77,0000.41,0000.31
2021-12-21 20:51:00,,0822.5,4.99,0.00,25.2,24.4,00.0,34.1,27.0,05.4,0000.0,0000.75,0000.42,0000.34
2021-12-21 20:52:00,,0822.5,5.00,0.00,25.2,24.4,00.0,34.2,27.0,05.4,0000.0,0000.76,0000.44,0000.36
2021-12-21 20:53:00,,0822.5,4.99,0.00,25.2,24.4,00.0,34.2,27.0,05.5,0000.0,0000.76,0000.46,0000.38
2021-12-21 20:54:00,,0822.4,5.02,0.00,25.2,24.4,00.0,34.2,27.0,05.4,0000.0,0000.87,0000.50,0000.40
2021-12-21 20:55:00,,0822.6,5.00,0.00,25.2,24.5,00.0,34.2,27.0,05.3,0000.0,0000.87,0000.53,0000.43
2021-12-21 20:56:00,,0822.5,5.00,0.00,25.2,24.5,00.0,34.2,27.0,05.2,0000.0,0000.94,0000.58,0000.46
2021-12-21 20:57:00,,0822.6,5.00,0.00,25.2,24.5,00.0,34.2,27.0,05.2,0000.0,0001.16,0000.65,0000.48
2021-12-21 20:58:00,,0822.5,5.01,0.00,25.2,24.5,00.0,34.2,27.1,05.4,0000.0,0001.29,0000.67,0000.50
2021-12-21 20:59:00,,0822.6,4.98,0.00,25.2,24.5,00.0,34.2,27.1,05.4,0000.0,0002.21,0000.72,0000.53
